RH
46 45 28 25 34 70 91 83 90 98 98 98 92 79 57 45 43 36 35 34 35 37 40 42 32 29 29 26 24 26 23 27 31 23 24 19 26 32 31 38 48 45 48 34
50 50 36 32 32 52 86 78 94 99 94 96 86 78 61 47 45 35 33 37 39 42 44 41 30 27 30 27 24 24 23 33 39 30 27 21 23 30 29 36 40 45 48 40
57 56 44 36 36 49 80 90 96 99 98 90 81 78 61 47 46 37 34 39 41 47 45 33 29 31 33 26 25 26 25 30 33 36 35 34 27 29 34 27 42 38 39 33
63 61 49 38 58 83 87 94 98 97 96 96 80 78 54 50 47 38 37 41 45 50 44 31 32 35 33 29 31 27 24 26 25 30 24 24 26 24 31 33 30 35 33 37
67 66 50 48 84 93 93 98 93 98 93 95 89 79 56 51 43 37 41 41 46 46 40 31 35 37 34 33 28 28 24 26 20 19 20 17 19 23 28 29 31 34 32 31
73 62 61 70 94 97 91 90 98 99 93 86 87 74 61 53 39 39 40 45 52 49 38 32 34 34 27 24 24 23 22 27 25 26 22 23 26 23 19 23 25 26 35 29
71 61 63 87 94 88 87 96 97 98 95 85 71 67 63 46 38 42 46 50 54 52 38 32 36 30 29 27 21 18 19 25 26 33 28 37 18 20 18 18 18 25 26 29
64 66 69 74 85 93 93 96 99 97 93 86 75 77 64 48 44 50 52 54 52 45 36 37 39 37 33 34 24 23 21 28 30 34 32 22 17 20 18 18 19 17 22 25
58 57 62 71 84 85 95 90 98 95 91 76 73 67 56 51 51 58 58 57 53 42 36 40 41 46 38 35 29 25 27 28 34 34 33 34 25 18 18 16 25 19 17 20
63 53 58 70 75 84 91 91 93 98 92 83 77 61 54 53 59 59 57 56 50 42 41 49 44 42 28 33 33 32 33 35 36 41 44 32 20 16 17 21 25 19 16 19
55 53 61 65 75 83 93 94 94 98 91 80 78 73 66 54 54 51 54 53 46 44 46 48 45 42 33 31 28 30 32 38 42 39 41 33 18 17 20 19 20 18 17 18
51 52 57 64 75 85 92 94 97 97 94 86 83 78 69 56 55 55 53 47 36 34 46 44 39 41 35 37 38 30 35 29 35 28 26 19 18 15 16 19 18 17 18 19
50 53 56 61 77 94 95 97 98 97 93 92 85 84 79 71 65 61 57 43 36 42 42 43 43 40 38 41 42 38 33 27 32 25 17 18 18 17 17 17 17 19 20 21
46 50 56 62 83 96 97 98 99 94 92 95 93 90 79 73 67 64 54 45 47 46 43 42 42 43 38 39 34 31 32 26 25 21 18 18 19 21 20 19 19 18 20 21
47 55 54 71 89 97 98 98 96 93 86 88 87 79 72 71 73 61 48 50 48 45 44 40 42 38 36 33 34 36 34 28 26 20 13 15 14 15 17 19 19 19 19 21
50 53 62 78 93 97 98 98 98 95 88 81 89 84 76 81 73 55 51 51 49 47 40 38 38 35 31 34 38 33 31 25 20 14 15 14 15 17 17 17 17 19 19 20
48 55 71 91 96 98 96 90 89 92 88 86 86 86 84 76 63 58 59 55 51 42 39 41 39 34 34 35 37 28 23 20 17 15 17 17 15 15 16 16 16 17 19 20
50 74 90 95 98 99 97 97 90 92 89 86 90 87 79 70 63 61 59 58 48 43 44 41 38 38 38 36 34 29 23 18 15 13 14 13 15 15 15 15 13 16 18 19
78 86 95 99 99 98 97 95 95 92 87 82 78 75 75 65 59 59 60 54 57 51 46 42 39 38 35 32 32 28 17 14 13 11 11 13 14 14 14 14 13 14 16 18
90 98 99 99 97 97 97 98 96 94 93 86 77 68 64 56 57 64 61 58 60 56 50 43 39 33 28 28 29 28 24 13 14 14 9 11 12 12 12 12 13 14 15 17
97 98 97 98 96 97 97 98 98 96 92 85 78 68 60 63 67 67 61 65 59 57 48 43 37 34 28 23 24 26 29 23 16 16 10 10 10 10 11 12 13 14 16 19
94 94 97 98 98 98 98 98 97 92 86 80 77 66 65 69 69 68 63 60 56 51 41 40 40 30 20 19 22 25 28 31 22 17 12 10 10 10 10 12 13 14 17 21
96 98 98 98 98 98 97 94 91 80 74 71 66 68 68 73 70 67 63 58 55 43 43 44 34 24 23 21 20 25 28 28 23 18 12 11 10 11 11 12 13 15 19 22
96 97 98 98 98 91 74 66 62 59 63 65 63 61 62 66 69 64 58 55 47 47 49 40 31 23 21 22 20 20 23 22 18 17 15 13 13 13 13 13 14 16 20 25
98 97 97 93 77 71 65 60 60 65 65 64 64 65 66 70 64 59 55 53 52 48 41 34 25 23 22 22 22 18 15 17 16 16 15 14 13 14 15 16 16 18 24 26
92 93 85 75 70 67 58 61 67 70 69 68 66 65 65 65 61 59 57 51 49 40 35 28 27 27 26 24 22 19 18 16 16 15 16 15 14 16 18 18 18 22 22 22
89 80 74 71 66 64 64 63 66 69 66 69 62 62 62 61 60 57 48 45 40 32 30 27 27 25 24 22 21 19 19 19 20 18 18 17 18 20 19 18 20 21 21 22